Flag for Austria Weather for the Past 2 Weeks in Bruck an der Leitha, Lower Austria, Austria

Now
37 °F

Overcast.


Feels Like: N/A
Forecast: 33 / 47 °F
Wind: N/A

Location: Wien / Schwechat-Flughafen

Current Time: Feb 13, 2016 at 10:20:40 AM

Latest Report: Feb 13, 2016 at 9:00 AM


Visibility: 6 mi

Pressure: 29.44 "Hg

Humidity: 93%

Dew point: 35 °F

Location of Bruck an der LeithaLocation

Historic Weather in Bruck an der Leitha — Graph

°F

Bruck an der Leitha Temperature Yesterday

Maximum temperature yesterday: 44 °F (at 4:00 PM)
Minimum temperature yesterday: 31 °F (at 7:00 AM)
Average temperature yesterday: 38 °F

High & Low Weather Summary for the Past Weeks

 TemperatureHumidityPressure
High59 °F (Feb 7, 2:00 PM)100% (Jan 30, 2:00 AM)30.44 "Hg (Jan 30, 2:00 AM)
Low30 °F (Jan 30, 7:00 AM)42% (Feb 7, 2:00 PM)29.29 "Hg (Feb 10, 12:00 AM)
Average44 °F75%29.94 "Hg
* Reported Jan 29 9:00 AM — Feb 13 9:00 AM, Bruck an der Leitha, Weather by CustomWeather, © 2016

Note: Actual official high and low records may vary slightly from our data, if they occured in-between our weather recording intervals... More about our weather records

Advertising

Bruck an der Leitha Weather History for the Previous 24 Hours

 ConditionsComfort  
Time TempWeatherWind HumidityBarometerVisibility
9:00 AM
Sat, Feb 13
37 °FOvercast.N/A93%29.44 "Hg6 mi
8:00 AM36 °FLow clouds.N/A93%29.41 "Hg3 mi
7:00 AM36 °FLow clouds.N/A94%29.41 "Hg4 mi
6:00 AM35 °FLow clouds.N/A95%29.41 "Hg5 mi
5:00 AM36 °FLow clouds.N/A94%29.41 "Hg6 mi
9:00 PM
Fri, Feb 12
38 °FOvercast.8 mph88%29.56 "Hg25 mi
8:00 PM38 °FOvercast.8 mph86%29.58 "Hg28 mi
7:00 PM39 °FOvercast.8 mph82%29.60 "Hg28 mi
6:00 PM39 °FPassing clouds.7 mph77%29.62 "Hg31 mi
4:00 PM44 °FOvercast.8 mph61%29.64 "Hg28 mi
3:00 PM42 °FOvercast.5 mph68%29.66 "Hg19 mi
2:00 PM41 °FOvercast.N/A72%29.67 "Hg19 mi
1:00 PM41 °FOvercast.3 mph70%29.70 "Hg19 mi
12:00 PM40 °FOvercast.N/A71%29.72 "Hg17 mi
11:00 AM38 °FOvercast.N/A77%29.75 "Hg19 mi
10:00 AM36 °FOvercast.3 mph83%29.76 "Hg19 mi
Weather by CustomWeather, © 2016

See weather overviewHow to use our weather pages